CDT,Max TemperatureF,Mean TemperatureF,Min TemperatureF,Max Dew PointF,MeanDew PointF,Min DewpointF,Max Humidity, Mean Humidity, Min Humidity, Max Sea Level PressureIn, Mean Sea Level PressureIn, Min Sea Level PressureIn, Max VisibilityMiles, Mean VisibilityMiles, Min VisibilityMiles, Max Wind SpeedMPH, Mean Wind SpeedMPH, Max Gust SpeedMPH,PrecipitationIn, CloudCover, Events, WindDirDegrees
2012-10-1,69,55,41,43,35,27,61,43,24,30.13,30.06,29.99,10,10,8,18,13,25,0.00,2,,326
2012-10-2,78,58,37,37,33,28,81,43,21,30.00,29.82,29.71,10,10,8,30,12,38,0.00,0,,213
2012-10-3,60,51,42,41,37,32,81,57,42,29.93,29.87,29.82,10,10,8,33,14,43,0.00,2,,17
2012-10-4,44,38,32,37,34,28,100,83,61,30.26,30.12,29.93,10,8,2,33,25,43,0.00,7,,313
2012-10-5,41,34,28,32,27,25,93,76,56,30.31,30.26,30.23,10,10,5,25,14,31,0.00,3,,304
2012-10-6,46,36,26,32,26,19,100,71,34,30.40,30.31,30.20,10,10,2,14,10,18,0.00,3,,314
2012-10-7,59,42,26,30,23,19,81,57,25,30.19,29.96,29.77,10,10,9,21,11,26,0.00,2,,227
2012-10-8,60,50,39,39,33,28,81,56,41,29.77,29.66,29.55,10,10,10,31,13,40,0.00,3,,254
2012-10-9,44,40,35,32,29,27,75,64,53,29.92,29.79,29.74,10,10,8,26,14,33,0.00,5,,289
2012-10-10,,,,,,,,,,,,,,,,,,,0.00,,,-1
2012-10-11,,,,,,,,,,,,,,,,,,,0.00,,,-1
2012-10-12,,,,,,,,,,,,,,,,,,,0.00,,,-1
2012-10-13,,,,,,,,,,,,,,,,,,,0.00,,,-1
2012-10-14,,,,,,,,,,,,,,,,,,,0.00,,,-1
2012-10-15,,,,,,,,,,,,,,,,,,,0.00,,,-1
2012-10-16,,,,,,,,,,,,,,,,,,,0.00,,,-1
2012-10-17,,,,,,,,,,,,,,,,,,,0.00,,,-1
2012-10-18,,,,,,,,,,,,,,,,,,,0.00,,,-1
2012-10-19,44,42,39,43,41,39,100,92,81,29.80,29.77,29.75,10,10,5,20,14,24,0.00,8,,323
2012-10-20,59,47,35,50,43,36,100,91,48,29.75,29.68,29.62,10,9,3,16,8,21,0.00,4,,154
2012-10-21,55,48,41,52,44,39,100,90,63,30.03,29.83,29.67,10,7,2,22,10,29,0.00,1,,33
2012-10-22,53,47,41,45,39,34,93,74,58,30.06,29.99,29.86,10,10,8,17,13,17,0.00,3,,26
2012-10-23,57,52,48,57,51,46,100,98,87,29.85,29.73,29.62,10,5,0,17,9,24,0.00,7,,149
2012-10-24,48,42,35,48,37,30,100,87,76,30.03,29.95,29.84,10,10,5,18,12,21,0.00,4,,329
2012-10-25,37,35,33,30,26,21,87,70,52,30.21,30.06,29.98,10,10,10,28,16,34,0.00,6,,317
2012-10-26,37,34,30,23,21,16,75,56,41,30.35,30.30,30.21,10,10,10,25,16,30,0.00,7,,283
2012-10-27,39,29,19,32,24,18,100,79,45,30.32,30.27,30.22,10,9,1,13,7,,0.00,4,,246
2012-10-28,37,32,28,37,33,28,100,100,93,30.27,30.22,30.13,10,6,0,13,9,,0.00,7,,46
2012-10-29,53,43,33,36,35,34,100,77,47,30.13,30.11,30.09,10,10,5,14,10,16,0.00,2,,126
2012-10-30,46,40,33,37,34,30,100,84,57,30.14,30.10,30.06,10,10,5,18,13,23,0.00,5,,128
2012-10-31,57,44,32,46,36,30,100,81,48,30.06,30.00,29.94,10,10,3,21,8,26,0.00,2,,216